Date,TemperatureHighF,TemperatureAvgF,TemperatureLowF,DewpointHighF,DewpointAvgF,DewpointLowF,HumidityHigh,HumidityAvg,HumidityLow,PressureMaxIn,PressureMinIn,WindSpeedMaxMPH,WindSpeedAvgMPH,GustSpeedMaxMPH,PrecipitationSumIn
2013-3-27,42,34,18,-100,-100,-100,0,0,100,0.00,40.00,0,-999,0,0.02
2013-3-28,46,27,7,-100,-100,-100,0,0,100,0.00,40.00,0,-999,0,0.08
2013-3-29,51,31,11,-100,-100,-100,0,0,100,0.00,40.00,0,-999,0,0.03
2013-3-30,53,40,28,-100,-100,-100,0,0,100,0.00,40.00,0,-999,0,0.14
2013-3-31,32,27,20,-100,-100,-100,0,0,100,0.00,40.00,0,-999,0,0.01
2013-4-1,30,22,13,-100,-100,-100,0,0,100,0.00,40.00,0,-999,0,0.00
2013-4-2,31,20,6,-100,-100,-100,0,0,100,0.00,40.00,0,-999,0,0.00
2013-4-3,43,23,1,-100,-100,-100,0,0,100,0.00,40.00,0,-999,0,0.00
2013-4-4,38,34,25,-100,-100,-100,0,0,100,0.00,40.00,0,-999,0,0.00
2013-4-5,40,26,9,-100,-100,-100,0,0,100,0.00,40.00,0,-999,0,0.00
2013-4-6,32,30,24,-100,-100,-100,0,0,100,0.00,40.00,0,-999,0,0.04
2013-4-7,38,33,29,-100,-100,-100,0,0,100,0.00,40.00,0,-999,0,0.21
2013-4-8,39,34,30,-100,-100,-100,0,0,100,0.00,40.00,0,-999,0,0.18
2013-4-9,37,32,27,-100,-100,-100,0,0,100,0.00,40.00,0,-999,0,0.04
2013-4-10,44,31,17,-100,-100,-100,0,0,100,0.00,40.00,0,-999,0,0.00
2013-4-11,30,27,24,-100,-100,-100,0,0,100,0.00,40.00,0,-999,0,0.00
2013-4-12,27,24,21,-100,-100,-100,0,0,100,0.00,40.00,0,-999,0,0.00
2013-4-13,33,25,16,-100,-100,-100,0,0,100,0.00,40.00,0,-999,0,0.05
2013-4-14,41,24,3,-100,-100,-100,0,0,100,0.00,40.00,0,-999,0,0.09
2013-4-15,37,32,29,-100,-100,-100,0,0,100,0.00,40.00,0,-999,0,0.15
2013-4-16,37,32,29,-100,-100,-100,0,0,100,0.00,40.00,0,-999,0,0.02
2013-4-17,34,31,29,-100,-100,-100,0,0,100,0.00,40.00,0,-999,0,0.02
2013-4-18,32,29,25,-100,-100,-100,0,0,100,0.00,40.00,0,-999,0,0.03
2013-4-19,27,23,8,-100,-100,-100,0,0,100,0.00,40.00,0,-999,0,0.01
2013-4-20,39,17,-7,-100,-100,-100,0,0,100,0.00,40.00,0,-999,0,0.09
2013-4-21,36,29,19,-100,-100,-100,0,0,100,0.00,40.00,0,-999,0,0.16
2013-4-22,36,33,30,-100,-100,-100,0,0,100,0.00,40.00,0,-999,0,0.09
2013-4-23,41,32,21,-100,-100,-100,0,0,100,0.00,40.00,0,-999,0,0.02
2013-4-24,44,29,13,-100,-100,-100,0,0,100,0.00,40.00,0,-999,0,0.00
2013-4-25,46,33,20,-100,-100,-100,0,0,100,0.00,40.00,0,-999,0,0.00
2013-4-26,63,45,28,-100,-100,-100,0,0,100,0.00,40.00,0,-999,0,0.00
2013-4-27,69,51,29,-100,-100,-100,0,0,100,0.00,40.00,0,-999,0,0.00
2013-4-28,62,52,35,-100,-100,-100,0,0,100,0.00,40.00,0,-999,0,0.00
2013-4-29,64,44,26,-100,-100,-100,0,0,100,0.00,40.00,0,-999,0,0.00
2013-4-30,63,52,41,-100,-100,-100,0,0,100,0.00,40.00,0,-999,0,0.05
2013-5-1,48,36,31,-100,-100,-100,0,0,100,0.00,40.00,0,-999,0,0.02
2013-5-2,38,32,29,-100,-100,-100,0,0,100,0.00,40.00,0,-999,0,0.00
2013-5-3,34,30,27,-100,-100,-100,0,0,100,0.00,40.00,0,-999,0,0.01
2013-5-4,35,32,29,-100,-100,-100,0,0,100,0.00,40.00,0,-999,0,0.16
2013-5-5,49,39,33,-100,-100,-100,0,0,100,0.00,40.00,0,-999,0,0.04
2013-5-6,70,49,31,-100,-100,-100,0,0,100,0.00,40.00,0,-999,0,0.00
2013-5-7,75,54,32,-100,-100,-100,0,0,100,0.00,40.00,0,-999,0,0.00
2013-5-8,74,53,35,-100,-100,-100,0,0,100,0.00,40.00,0,-999,0,0.04
2013-5-9,57,44,31,-100,-100,-100,0,0,100,0.00,40.00,0,-999,0,0.01
2013-5-10,57,40,23,-100,-100,-100,0,0,100,0.00,40.00,0,-999,0,0.02
2013-5-11,40,36,34,-100,-100,-100,0,0,100,0.00,40.00,0,-999,0,0.06
2013-5-12,46,36,27,-100,-100,-100,0,0,100,0.00,40.00,0,-999,0,0.01
2013-5-13,56,41,22,-100,-100,-100,0,0,100,0.00,40.00,0,-999,0,0.00
2013-5-14,78,53,29,-100,-100,-100,0,0,100,0.00,40.00,0,-999,0,0.00
2013-5-15,72,58,43,-100,-100,-100,0,0,100,0.00,40.00,0,-999,0,0.00
2013-5-16,66,50,31,-100,-100,-100,0,0,100,0.00,40.00,0,-999,0,0.00
2013-5-17,63,52,44,-100,-100,-100,0,0,100,0.00,40.00,0,-999,0,0.00
2013-5-18,53,50,47,-100,-100,-100,0,0,100,0.00,40.00,0,-999,0,0.23
2013-5-19,61,54,48,-100,-100,-100,0,0,100,0.00,40.00,0,-999,0,0.05
2013-5-20,53,50,47,-100,-100,-100,0,0,100,0.00,40.00,0,-999,0,0.43
2013-5-21,47,44,42,-100,-100,-100,0,0,100,0.00,40.00,0,-999,0,0.25
2013-5-22,66,54,43,-100,-100,-100,0,0,100,0.00,40.00,0,-999,0,0.06
2013-5-23,60,46,35,-100,-100,-100,0,0,100,0.00,40.00,0,-999,0,0.00
2013-5-24,71,50,29,-100,-100,-100,0,0,100,0.00,40.00,0,-999,0,0.00
2013-5-25,63,53,42,-100,-100,-100,0,0,100,0.00,40.00,0,-999,0,0.00
2013-5-26,68,55,40,-100,-100,-100,0,0,100,0.00,40.00,0,-999,0,0.00
2013-5-27,69,57,40,-100,-100,-100,0,0,100,0.00,40.00,0,-999,0,0.00
2013-5-28,69,56,41,-100,-100,-100,0,0,100,0.00,40.00,0,-999,0,0.00
2013-5-29,78,62,46,-100,-100,-100,0,0,100,0.00,40.00,0,-999,0,0.22
2013-5-30,74,63,58,-100,-100,-100,0,0,100,0.00,40.00,0,-999,0,0.28
2013-5-31,77,64,54,-100,-100,-100,0,0,100,0.00,40.00,0,-999,0,0.06
2013-6-1,54,48,42,-100,-100,-100,0,0,100,0.00,40.00,0,-999,0,0.24
2013-6-2,60,48,38,-100,-100,-100,0,0,100,0.00,40.00,0,-999,0,0.02
2013-6-3,64,48,32,-100,-100,-100,0,0,100,0.00,40.00,0,-999,0,0.00
2013-6-4,63,50,37,-100,-100,-100,0,0,100,0.00,40.00,0,-999,0,0.00
2013-6-5,55,50,44,-100,-100,-100,0,0,100,0.00,40.00,0,-999,0,0.00
2013-6-6,59,50,42,-100,-100,-100,0,0,100,0.00,40.00,0,-999,0,0.00
2013-6-7,67,51,34,-100,-100,-100,0,0,100,0.00,40.00,0,-999,0,0.00
2013-6-8,74,58,39,-100,-100,-100,0,0,100,0.00,40.00,0,-999,0,0.00
2013-6-9,67,54,42,-100,-100,-100,0,0,100,0.00,40.00,0,-999,0,0.18
2013-6-10,67,59,54,-100,-100,-100,0,0,100,0.00,40.00,0,-999,0,0.04
2013-6-11,76,63,51,-100,-100,-100,0,0,100,0.00,40.00,0,-999,0,0.00
2013-6-12,72,61,44,-100,-100,-100,0,0,100,0.00,40.00,0,-999,0,0.00
2013-6-13,77,62,49,-100,-100,-100,0,0,100,0.00,40.00,0,-999,0,0.00
2013-6-14,76,59,41,-100,-100,-100,0,0,100,0.00,40.00,0,-999,0,0.00
2013-6-15,78,62,50,-100,-100,-100,0,0,100,0.00,40.00,0,-999,0,0.16
2013-6-16,71,60,51,-100,-100,-100,0,0,100,0.00,40.00,0,-999,0,0.16
2013-6-17,62,52,44,-100,-100,-100,0,0,100,0.00,40.00,0,-999,0,0.17
2013-6-18,77,55,36,-100,-100,-100,0,0,100,0.00,40.00,0,-999,0,0.02
2013-6-19,79,60,38,-100,-100,-100,0,0,100,0.00,40.00,0,-999,0,0.08
2013-6-20,71,64,60,-100,-100,-100,0,0,100,0.00,40.00,0,-999,0,0.26
2013-6-22,63,61,57,-100,-100,-100,0,0,100,0.00,40.00,0,-999,0,0.03
2013-6-23,77,65,57,-100,-100,-100,0,0,100,0.00,40.00,0,-999,0,0.01
2013-6-24,86,69,55,-100,-100,-100,0,0,100,0.00,40.00,0,-999,0,0.01
2013-6-25,92,72,54,-100,-100,-100,0,0,100,0.00,40.00,0,-999,0,0.17
2013-6-26,81,68,61,-100,-100,-100,0,0,100,0.00,40.00,0,-999,0,0.67
2013-6-27,79,69,59,-100,-100,-100,0,0,100,0.00,40.00,0,-999,0,0.12
2013-6-28,70,63,60,-100,-100,-100,0,0,100,0.00,40.00,0,-999,0,0.44
2013-6-29,72,62,51,-100,-100,-100,0,0,100,0.00,40.00,0,-999,0,0.12
2013-6-30,79,64,47,-100,-100,-100,0,0,100,0.00,40.00,0,-999,0,0.00
2013-7-1,79,64,50,-100,-100,-100,0,0,100,0.00,40.00,0,-999,0,0.00
2013-7-2,83,62,43,-100,-100,-100,0,0,100,0.00,40.00,0,-999,0,0.00
2013-7-3,84,65,44,-100,-100,-100,0,0,100,0.00,40.00,0,-999,0,0.00
2013-7-4,85,70,55,-100,-100,-100,0,0,100,0.00,40.00,0,-999,0,0.00
2013-7-5,86,76,66,-100,-100,-100,0,0,100,0.00,40.00,0,-999,0,0.00
2013-7-6,79,69,63,-100,-100,-100,0,0,100,0.00,40.00,0,-999,0,0.18
2013-7-7,75,67,60,-100,-100,-100,0,0,100,0.00,40.00,0,-999,0,0.02
2013-7-8,81,64,58,-100,-100,-100,0,0,100,0.00,40.00,0,-999,0,0.00
2013-7-9,72,66,57,-100,-100,-100,0,0,100,0.00,40.00,0,-999,0,0.06
2013-7-10,75,63,56,-100,-100,-100,0,0,100,0.00,40.00,0,-999,0,0.01
2013-7-11,82,66,50,-100,-100,-100,0,0,100,0.00,40.00,0,-999,0,0.00
2013-7-12,87,74,62,-100,-100,-100,0,0,100,0.00,40.00,0,-999,0,0.00
2013-7-13,82,73,65,-100,-100,-100,0,0,100,0.00,40.00,0,-999,0,0.13
2013-7-14,70,67,64,-100,-100,-100,0,0,100,0.00,40.00,0,-999,0,0.47
2013-7-15,71,67,65,-100,-100,-100,0,0,100,0.00,40.00,0,-999,0,0.12
2013-7-16,90,75,60,-100,-100,-100,0,0,100,0.00,40.00,0,-999,0,0.02
2013-7-17,79,72,64,-100,-100,-100,0,0,100,0.00,40.00,0,-999,0,0.01
2013-7-18,87,70,63,-100,-100,-100,0,0,100,0.00,40.00,0,-999,0,2.56
2013-7-19,75,68,62,-100,-100,-100,0,0,100,0.00,40.00,0,-999,0,1.54
2013-7-20,68,58,47,-100,-100,-100,0,0,100,0.00,40.00,0,-999,0,0.01
2013-7-21,72,58,42,-100,-100,-100,0,0,100,0.00,40.00,0,-999,0,0.00
2013-7-22,75,64,52,-100,-100,-100,0,0,100,0.00,40.00,0,-999,0,0.00
2013-7-23,71,59,51,-100,-100,-100,0,0,100,0.00,40.00,0,-999,0,0.00
2013-7-24,72,60,47,-100,-100,-100,0,0,100,0.00,40.00,0,-999,0,0.01
2013-7-25,76,62,53,-100,-100,-100,0,0,100,0.00,40.00,0,-999,0,0.41
2013-7-26,56,51,46,-100,-100,-100,0,0,100,0.00,40.00,0,-999,0,0.29
2013-7-27,52,49,46,-100,-100,-100,0,0,100,0.00,40.00,0,-999,0,0.19
2013-7-28,69,56,48,-100,-100,-100,0,0,100,0.00,40.00,0,-999,0,0.18
2013-7-29,74,58,43,-100,-100,-100,0,0,100,0.00,40.00,0,-999,0,0.15
2013-7-30,72,61,53,-100,-100,-100,0,0,100,0.00,40.00,0,-999,0,0.07
2013-7-31,71,65,57,-100,-100,-100,0,0,100,0.00,40.00,0,-999,0,0.07
2013-8-1,70,60,53,-100,-100,-100,0,0,100,0.00,40.00,0,-999,0,0.04
2013-8-2,68,58,49,-100,-100,-100,0,0,100,0.00,40.00,0,-999,0,0.07
2013-8-3,67,56,46,-100,-100,-100,0,0,100,0.00,40.00,0,-999,0,0.03
2013-8-4,75,57,42,-100,-100,-100,0,0,100,0.00,40.00,0,-999,0,0.02
2013-8-5,69,60,54,-100,-100,-100,0,0,100,0.00,40.00,0,-999,0,0.02
2013-8-6,69,60,53,-100,-100,-100,0,0,100,0.00,40.00,0,-999,0,0.01
2013-8-7,68,59,50,-100,-100,-100,0,0,100,0.00,40.00,0,-999,0,0.01
2013-8-8,66,57,48,-100,-100,-100,0,0,100,0.00,40.00,0,-999,0,0.01
2013-8-9,63,56,47,-100,-100,-100,0,0,100,0.00,40.00,0,-999,0,0.01
2013-8-10,74,58,44,-100,-100,-100,0,0,100,0.00,40.00,0,-999,0,0.00
2013-8-11,71,60,49,-100,-100,-100,0,0,100,0.00,40.00,0,-999,0,0.00
2013-8-12,64,56,48,-100,-100,-100,0,0,100,0.00,40.00,0,-999,0,0.00
2013-8-13,63,54,43,-100,-100,-100,0,0,100,0.00,40.00,0,-999,0,0.01
2013-8-14,72,54,37,-100,-100,-100,0,0,100,0.00,40.00,0,-999,0,0.01
2013-8-15,76,57,42,-100,-100,-100,0,0,100,0.00,40.00,0,-999,0,0.00
2013-8-16,79,63,45,-100,-100,-100,0,0,100,0.00,40.00,0,-999,0,0.00
2013-8-17,79,66,53,-100,-100,-100,0,0,100,0.00,40.00,0,-999,0,0.00
2013-8-18,78,69,60,-100,-100,-100,0,0,100,0.00,40.00,0,-999,0,0.00
2013-8-19,85,71,61,-100,-100,-100,0,0,100,0.00,40.00,0,-999,0,0.01
2013-8-20,88,75,65,-100,-100,-100,0,0,100,0.00,40.00,0,-999,0,0.01
2013-8-21,80,71,54,-100,-100,-100,0,0,100,0.00,40.00,0,-999,0,0.01
2013-8-22,75,62,49,-100,-100,-100,0,0,100,0.00,40.00,0,-999,0,0.01
2013-8-23,80,63,45,-100,-100,-100,0,0,100,0.00,40.00,0,-999,0,0.01
2013-8-24,85,72,56,-100,-100,-100,0,0,100,0.00,40.00,0,-999,0,0.01
2013-8-25,92,80,74,-100,-100,-100,0,0,100,0.00,40.00,0,-999,0,0.02
2013-8-26,88,75,61,-100,-100,-100,0,0,100,0.00,40.00,0,-999,0,0.01
2013-8-27,88,71,62,-100,-100,-100,0,0,100,0.00,40.00,0,-999,0,0.01
2013-8-28,89,81,67,-100,-100,-100,0,0,100,0.00,40.00,0,-999,0,0.01
2013-8-29,78,68,61,-100,-100,-100,0,0,100,0.00,40.00,0,-999,0,0.03
2013-8-30,77,69,62,-100,-100,-100,0,0,100,0.00,40.00,0,-999,0,0.03
2013-8-31,81,67,59,-100,-100,-100,0,0,100,0.00,40.00,0,-999,0,0.02
2013-9-1,66,59,51,-100,-100,-100,0,0,100,0.00,40.00,0,-999,0,0.03
2013-9-2,65,53,45,-100,-100,-100,0,0,100,0.00,40.00,0,-999,0,0.02
2013-9-3,79,59,40,-100,-100,-100,0,0,100,0.00,40.00,0,-999,0,0.04
2013-9-4,69,59,45,-100,-100,-100,0,0,100,0.00,40.00,0,-999,0,0.04
2013-9-5,77,57,39,-100,-100,-100,0,0,100,0.00,40.00,0,-999,0,0.02
2013-9-6,83,68,53,-100,-100,-100,0,0,100,0.00,40.00,0,-999,0,0.03
2013-9-7,76,66,52,-100,-100,-100,0,0,100,0.00,40.00,0,-999,0,0.02
2013-9-8,67,56,46,-100,-100,-100,0,0,100,0.00,40.00,0,-999,0,0.02
2013-9-9,63,60,56,-100,-100,-100,0,0,100,0.00,40.00,0,-999,0,0.02
2013-9-10,71,64,56,-100,-100,-100,0,0,100,0.00,40.00,0,-999,0,0.03
2013-9-11,70,60,50,-100,-100,-100,0,0,100,0.00,40.00,0,-999,0,0.02
2013-9-12,55,51,40,-100,-100,-100,0,0,100,0.00,40.00,0,-999,0,0.02
2013-9-13,67,50,36,-100,-100,-100,0,0,100,0.00,40.00,0,-999,0,0.01
2013-9-14,68,57,45,-100,-100,-100,0,0,100,0.00,40.00,0,-999,0,0.01
2013-9-15,56,50,36,-100,-100,-100,0,0,100,0.00,40.00,0,-999,0,0.02
2013-9-16,65,46,31,-100,-100,-100,0,0,100,0.00,40.00,0,-999,0,0.01
2013-9-17,69,53,38,-100,-100,-100,0,0,100,0.00,40.00,0,-999,0,0.01
2013-9-18,61,56,54,-100,-100,-100,0,0,100,0.00,40.00,0,-999,0,0.01
2013-9-19,69,64,60,-100,-100,-100,0,0,100,0.00,40.00,0,-999,0,0.01
2013-9-20,61,52,45,-100,-100,-100,0,0,100,0.00,40.00,0,-999,0,0.01
2013-9-21,52,43,34,-100,-100,-100,0,0,100,0.00,40.00,0,-999,0,0.01
2013-9-22,59,43,31,-100,-100,-100,0,0,100,0.00,40.00,0,-999,0,0.01
2013-9-23,69,54,44,-100,-100,-100,0,0,100,0.00,40.00,0,-999,0,0.01
2013-9-24,73,57,47,-100,-100,-100,0,0,100,0.00,40.00,0,-999,0,0.01
2013-9-25,73,55,41,-100,-100,-100,0,0,100,0.00,40.00,0,-999,0,0.01
2013-9-26,71,56,45,-100,-100,-100,0,0,100,0.00,40.00,0,-999,0,0.01
2013-9-27,76,65,52,-100,-100,-100,0,0,100,0.00,40.00,0,-999,0,0.01
2013-9-28,69,60,46,-100,-100,-100,0,0,100,0.00,40.00,0,-999,0,0.01
2013-9-29,68,53,40,-100,-100,-100,0,0,100,0.00,40.00,0,-999,0,0.01
2013-9-30,70,61,55,-100,-100,-100,0,0,100,0.00,40.00,0,-999,0,0.01
2013-10-1,61,55,51,-100,-100,-100,0,0,100,0.00,40.00,0,-999,0,0.00
2013-10-2,65,52,39,-100,-100,-100,0,0,100,0.00,40.00,0,-999,0,0.00
2013-10-3,61,50,40,-100,-100,-100,0,0,100,0.00,40.00,0,-999,0,0.01
2013-10-4,54,51,47,-100,-100,-100,0,0,100,0.00,40.00,0,-999,0,0.01
2013-10-5,50,45,43,-100,-100,-100,0,0,100,0.00,40.00,0,-999,0,0.00
2013-10-6,47,43,35,-100,-100,-100,0,0,100,0.00,40.00,0,-999,0,0.01
2013-10-7,56,42,33,-100,-100,-100,0,0,100,0.00,40.00,0,-999,0,0.01
2013-10-8,72,54,33,-100,-100,-100,0,0,100,0.00,40.00,0,-999,0,0.01
2013-10-9,71,59,48,-100,-100,-100,0,0,100,0.00,40.00,0,-999,0,0.01
2013-10-10,72,57,45,-100,-100,-100,0,0,100,0.00,40.00,0,-999,0,0.01
2013-10-11,70,60,52,-100,-100,-100,0,0,100,0.00,40.00,0,-999,0,0.01
2013-10-12,60,53,44,-100,-100,-100,0,0,100,0.00,40.00,0,-999,0,0.01
2013-10-13,53,43,31,-100,-100,-100,0,0,100,0.00,40.00,0,-999,0,0.01
2013-10-14,51,39,29,-100,-100,-100,0,0,100,0.00,40.00,0,-999,0,0.26
2013-10-15,43,42,41,-100,-100,-100,0,0,100,0.00,40.00,0,-999,0,0.01
2013-10-16,52,41,31,-100,-100,-100,0,0,100,0.00,40.00,0,-999,0,0.00
2013-10-17,45,39,31,-100,-100,-100,0,0,100,0.00,40.00,0,-999,0,0.00
2013-10-18,48,39,31,-100,-100,-100,0,0,100,0.00,40.00,0,-999,0,0.01
2013-10-19,41,34,29,-100,-100,-100,0,0,100,0.00,40.00,0,-999,0,0.00
2013-10-20,38,34,31,-100,-100,-100,0,0,100,0.00,40.00,0,-999,0,0.00
2013-10-21,33,30,27,-100,-100,-100,0,0,100,0.00,40.00,0,-999,0,0.01
2013-10-22,34,32,28,-100,-100,-100,0,0,100,0.00,40.00,0,-999,0,0.01
2013-10-23,32,31,29,-100,-100,-100,0,0,100,0.00,40.00,0,-999,0,0.00
2013-10-24,40,33,30,-100,-100,-100,0,0,100,0.00,40.00,0,-999,0,0.01
2013-10-25,42,33,25,-100,-100,-100,0,0,100,0.00,40.00,0,-999,0,0.12
2013-10-26,39,35,31,-100,-100,-100,0,0,100,0.00,40.00,0,-999,0,0.02
2013-10-27,39,34,26,-100,-100,-100,0,0,100,0.00,40.00,0,-999,0,0.01
2013-10-28,36,26,19,-100,-100,-100,0,0,100,0.00,40.00,0,-999,0,0.06
2013-10-29,39,26,16,-100,-100,-100,0,0,100,0.00,40.00,0,-999,0,0.01
2013-10-30,40,34,26,-100,-100,-100,0,0,100,0.00,40.00,0,-999,0,0.37
2013-10-31,41,39,36,-100,-100,-100,0,0,100,0.00,40.00,0,-999,0,0.77
2013-11-1,38,36,30,-100,-100,-100,0,0,100,0.00,40.00,0,-999,0,0.39
2013-11-2,41,33,27,-100,-100,-100,0,0,100,0.00,40.00,0,-999,0,0.21
2013-11-3,46,36,27,-100,-100,-100,0,0,100,0.00,40.00,0,-999,0,0.29
2013-11-4,42,39,32,-100,-100,-100,0,0,100,0.00,40.00,0,-999,0,0.23
2013-11-5,35,31,28,-100,-100,-100,0,0,100,0.00,40.00,0,-999,0,0.07
2013-11-6,30,28,28,-100,-100,-100,0,0,100,0.00,40.00,0,-999,0,0.01
2013-11-7,31,29,28,-100,-100,-100,0,0,100,0.00,40.00,0,-999,0,0.00
2013-11-8,38,28,17,-100,-100,-100,0,0,100,0.00,40.00,0,-999,0,0.06
2013-11-9,33,32,32,-100,-100,-100,0,0,100,0.00,40.00,0,-999,0,0.02
2013-11-10,35,30,18,-100,-100,-100,0,0,100,0.00,40.00,0,-999,0,0.07
2013-11-11,18,15,10,-100,-100,-100,0,0,100,0.00,40.00,0,-999,0,0.01
2013-11-12,27,18,10,-100,-100,-100,0,0,100,0.00,40.00,0,-999,0,0.00
2013-11-13,43,30,18,-100,-100,-100,0,0,100,0.00,40.00,0,-999,0,0.10
2013-11-14,38,31,27,-100,-100,-100,0,0,100,0.00,40.00,0,-999,0,0.03
2013-11-15,45,37,32,-100,-100,-100,0,0,100,0.00,40.00,0,-999,0,0.06
2013-11-16,43,40,38,-100,-100,-100,0,0,100,0.00,40.00,0,-999,0,0.10
2013-11-17,39,35,26,-100,-100,-100,0,0,100,0.00,40.00,0,-999,0,0.17
2013-11-18,26,22,21,-100,-100,-100,0,0,100,0.00,40.00,0,-999,0,0.01
2013-11-19,37,27,17,-100,-100,-100,0,0,100,0.00,40.00,0,-999,0,0.00
2013-11-20,42,38,31,-100,-100,-100,0,0,100,0.00,40.00,0,-999,0,0.00
2013-11-21,33,24,16,-100,-100,-100,0,0,100,0.00,40.00,0,-999,0,0.00
2013-11-22,18,13,6,-100,-100,-100,0,0,100,0.00,40.00,0,-999,0,0.00
2013-11-23,10,5,-2,-100,-100,-100,0,0,100,0.00,40.00,0,-999,0,0.00
2013-11-24,29,13,-4,-100,-100,-100,0,0,100,0.00,40.00,0,-999,0,0.00
2013-11-25,33,29,18,-100,-100,-100,0,0,100,0.00,40.00,0,-999,0,0.01
2013-11-26,18,10,5,-100,-100,-100,0,0,100,0.00,40.00,0,-999,0,0.01
2013-11-27,17,13,8,-100,-100,-100,0,0,100,0.00,40.00,0,-999,0,0.00
2013-11-28,19,14,1,-100,-100,-100,0,0,100,0.00,40.00,0,-999,0,0.00
2013-11-29,22,10,-7,-100,-100,-100,0,0,100,0.00,40.00,0,-999,0,0.00
2013-11-30,27,25,22,-100,-100,-100,0,0,100,0.00,40.00,0,-999,0,0.00
2013-12-1,26,24,22,-100,-100,-100,0,0,100,0.00,40.00,0,-999,0,0.00
2013-12-2,30,25,21,-100,-100,-100,0,0,100,0.00,40.00,0,-999,0,0.00
2013-12-3,30,24,14,-100,-100,-100,0,0,100,0.00,40.00,0,-999,0,0.00
2013-12-4,20,16,13,-100,-100,-100,0,0,100,0.00,40.00,0,-999,0,0.00
2013-12-5,15,9,1,-100,-100,-100,0,0,100,0.00,40.00,0,-999,0,0.00
2013-12-6,4,-6,-12,-100,-100,-100,0,0,100,0.00,40.00,0,-999,0,0.00
2013-12-7,-2,-13,-20,-100,-100,-100,0,0,100,0.00,40.00,0,-999,0,0.00
2013-12-8,5,-10,-27,-100,-100,-100,0,0,100,0.00,40.00,0,-999,0,0.00
2013-12-9,6,-5,-17,-100,-100,-100,0,0,100,0.00,40.00,0,-999,0,0.00
2013-12-10,-3,-14,-25,-100,-100,-100,0,0,100,0.00,40.00,0,-999,0,0.00
2013-12-11,-4,-14,-23,-100,-100,-100,0,0,100,0.00,40.00,0,-999,0,0.00
2013-12-12,4,-7,-20,-100,-100,-100,0,0,100,0.00,40.00,0,-999,0,0.00
2013-12-13,-5,-10,-16,-100,-100,-100,0,0,100,0.00,40.00,0,-999,0,0.00
2013-12-14,6,-3,-9,-100,-100,-100,0,0,100,0.00,40.00,0,-999,0,0.00
2013-12-15,-5,-15,-28,-100,-100,-100,0,0,100,0.00,40.00,0,-999,0,0.00
2013-12-16,7,-2,-27,-100,-100,-100,0,0,100,0.00,40.00,0,-999,0,0.00
2013-12-17,15,5,-5,-100,-100,-100,0,0,100,0.00,40.00,0,-999,0,0.00
2013-12-18,21,2,-15,-100,-100,-100,0,0,100,0.00,40.00,0,-999,0,0.00
2013-12-19,12,4,-2,-100,-100,-100,0,0,100,0.00,40.00,0,-999,0,0.00
2013-12-20,18,0,-17,-100,-100,-100,0,0,100,0.00,40.00,0,-999,0,0.00
2013-12-21,15,10,2,-100,-100,-100,0,0,100,0.00,40.00,0,-999,0,0.00
2013-12-22,6,0,-6,-100,-100,-100,0,0,100,0.00,40.00,0,-999,0,0.00
2013-12-23,-4,-12,-26,-100,-100,-100,0,0,100,0.00,40.00,0,-999,0,0.00
2013-12-24,14,-2,-29,-100,-100,-100,0,0,100,0.00,40.00,0,-999,0,0.00
2013-12-25,16,8,-1,-100,-100,-100,0,0,100,0.00,40.00,0,-999,0,0.00
2013-12-26,11,-8,-20,-100,-100,-100,0,0,100,0.00,40.00,0,-999,0,0.00
2013-12-27,32,19,-17,-100,-100,-100,0,0,100,0.00,40.00,0,-999,0,0.00
2013-12-28,29,21,1,-100,-100,-100,0,0,100,0.00,40.00,0,-999,0,0.00
2013-12-29,-2,-16,-32,-100,-100,-100,0,0,100,0.00,40.00,0,-999,0,0.00
2013-12-30,-6,-22,-35,-100,-100,-100,0,0,100,0.00,40.00,0,-999,0,0.00
2013-12-31,-12,-25,-36,-100,-100,-100,0,0,100,0.00,40.00,0,-999,0,0.00
2014-1-1,-9,-25,-35,-100,-100,-100,0,0,100,0.00,40.00,0,-999,0,0.00
2014-1-2,-7,-24,-40,-100,-100,-100,0,0,100,0.00,40.00,0,-999,0,0.00